Retour au catalogue

DELTA 1 DEB

ActifSSO
NORAD 9293·DEBRIS·🇺🇸 United States

Lancé Jan 22, 1975 depuis Vandenberg Space Force Base

Loading…

Prochains Passages (prochaines 24 heures)

TLE

FraisSource: Space-Track

Époque: Sep 14, 2026, 02:06 UTC

1 09293U 75004DU  26257.08808100  .00000439  00000-0  96316-4 0  9991
2 09293  97.9658   3.1034 0076500 268.8983  90.3453 14.60673345655269

Suivez DELTA 1 DEB en temps réel avec AllMySat

Download on the App Store